Location: Nachod
(50.4170°N, 16.1670°E)
Time: 18:18:31
(UTC+02:00)

ISS - Pass Details

Date: 25 March 2019
Orbit: 408 x 410 km, 51.6° (Epoch: 22 April)

Event Time Altitude Azimuth Distance (km) Brightness Sun altitude
Rises 18:37:37 0° 220° (SW) 2,327 0.5 -4.3°
Reaches altitude 10° 18:39:51 10° 209° (SSW) 1,469 -0.7 -4.6°
Maximum altitude 18:42:45 29° 147° (SSE) 783 -2.7 -5.1°
Drops below altitude 10° 18:45:40 10° 85° (E) 1,474 -1.6 -5.6°
Enters shadow 18:46:27 - 80° (E) 1,768 -1.2 -5.7°
